When you browse on this site, cookies collect data to enhance your experience and personalize the content and advertising you see.
Visit our Privacy Policy to learn more. By continuing to use the site, you agree to this use of cookies and data.
  • In Romania
  • List of Countries
  • For 7 days
  • Water Temperature
  • Weather Map
  • Weather Widgets
  • user-avatar
    Login

    Hourly Weather Anastacio

    Today, 12 December, Thursday

    Time Temperature Precipitation Wind Pressure Humidity
    00:00 +26°C° 0.4 mm 1 mps 740 mmHg 93%
    01:00 +25°C° 0.4 mm 1 mps 740 mmHg 93%
    02:00 +25°C° 0.4 mm 1 mps 740 mmHg 94%
    03:00 +25°C° 1.5 mm 1 mps 740 mmHg 95%
    04:00 +25°C° 1.5 mm 1 mps 741 mmHg 96%
    05:00 +22°C° 1.5 mm 0 mps 741 mmHg 97%
    06:00 +26°C° 1.2 mm 1 mps 741 mmHg 92%
    07:00 +27°C° 1.2 mm 1 mps 742 mmHg 87%
    08:00 +29°C° 1.2 mm 1 mps 743 mmHg 83%
    09:00 +31°C° 1 mm 2 mps 742 mmHg 74%
    10:00 +34°C° 1 mm 2 mps 742 mmHg 65%
    11:00 +36°C° 1 mm 2 mps 742 mmHg 56%
    12:00 +36°C° 0.1 mm 1 mps 741 mmHg 53%
    13:00 +36°C° 0.1 mm 1 mps 741 mmHg 51%
    14:00 +37°C° 0.1 mm 1 mps 740 mmHg 49%
    15:00 +36°C° 0.1 mm 1 mps 740 mmHg 54%
    16:00 +35°C° 0.1 mm 1 mps 740 mmHg 60%
    17:00 +33°C° 0.1 mm 1 mps 739 mmHg 66%
    18:00 +32°C° 0.3 mm 1 mps 740 mmHg 72%
    19:00 +30°C° 0.3 mm 1 mps 741 mmHg 78%
    20:00 +28°C° 0.3 mm 2 mps 741 mmHg 84%
    21:00 +27°C° 0.2 mm 1 mps 742 mmHg 86%
    22:00 +27°C° 0.2 mm 1 mps 742 mmHg 89%
    23:00 +26°C° 0.2 mm 1 mps 742 mmHg 91%

    Tomorrow, 13 December, Friday

    Time Temperature Precipitation Wind Pressure Humidity
    00:00 +26°C° 0 mm 1 mps 742 mmHg 92%
    01:00 +26°C° 0 mm 1 mps 741 mmHg 92%
    02:00 +26°C° 0 mm 1 mps 741 mmHg 92%
    03:00 +26°C° 0 mm 1 mps 741 mmHg 92%
    04:00 +25°C° 0 mm 1 mps 742 mmHg 92%
    05:00 +23°C° 0 mm 0 mps 742 mmHg 92%
    06:00 +25°C° 0 mm 0 mps 742 mmHg 84%
    07:00 +28°C° 0 mm 0 mps 743 mmHg 76%
    08:00 +30°C° 0 mm 0 mps 744 mmHg 69%
    09:00 +34°C° 0.1 mm 1 mps 744 mmHg 62%
    10:00 +36°C° 0.1 mm 1 mps 743 mmHg 55%
    11:00 +39°C° 0.1 mm 1 mps 743 mmHg 48%
    12:00 +39°C° 0 mm 1 mps 742 mmHg 46%
    13:00 +39°C° 0 mm 1 mps 742 mmHg 44%
    14:00 +39°C° 0 mm 1 mps 741 mmHg 42%
    15:00 +37°C° 0 mm 1 mps 741 mmHg 46%
    16:00 +36°C° 0 mm 1 mps 740 mmHg 51%
    17:00 +35°C° 0 mm 1 mps 740 mmHg 55%
    18:00 +34°C° 0 mm 1 mps 741 mmHg 59%
    19:00 +32°C° 0 mm 1 mps 741 mmHg 63%
    20:00 +30°C° 0 mm 1 mps 741 mmHg 67%
    21:00 +29°C° 0 mm 1 mps 742 mmHg 71%
    22:00 +29°C° 0 mm 1 mps 742 mmHg 74%
    23:00 +28°C° 0 mm 2 mps 742 mmHg 78%

    Day after tomorrow, 14 December, Saturday

    Time Temperature Precipitation Wind Pressure Humidity
    00:00 +28°C° 0 mm 1 mps 742 mmHg 79%
    01:00 +27°C° 0 mm 1 mps 742 mmHg 80%
    02:00 +27°C° 0 mm 1 mps 742 mmHg 81%
    03:00 +27°C° 0 mm 1 mps 742 mmHg 83%
    04:00 +26°C° 0 mm 1 mps 742 mmHg 84%
    05:00 +26°C° 0 mm 1 mps 743 mmHg 86%
    06:00 +28°C° 0.1 mm 1 mps 743 mmHg 80%
    07:00 +30°C° 0.1 mm 1 mps 744 mmHg 75%
    08:00 +31°C° 0.1 mm 1 mps 744 mmHg 69%
    09:00 +34°C° 1 mm 2 mps 744 mmHg 64%
    10:00 +35°C° 1 mm 2 mps 744 mmHg 59%
    11:00 +36°C° 1 mm 2 mps 744 mmHg 54%
    12:00 +37°C° 0.1 mm 2 mps 743 mmHg 52%
    13:00 +36°C° 0.1 mm 1 mps 742 mmHg 50%
    14:00 +37°C° 0.1 mm 1 mps 742 mmHg 47%
    15:00 +36°C° 0 mm 1 mps 741 mmHg 51%
    16:00 +35°C° 0 mm 1 mps 741 mmHg 56%
    17:00 +34°C° 0 mm 1 mps 741 mmHg 60%
    18:00 +34°C° 0 mm 2 mps 741 mmHg 63%
    19:00 +32°C° 0 mm 2 mps 741 mmHg 66%
    20:00 +30°C° 0 mm 2 mps 742 mmHg 69%
    21:00 +29°C° 0.1 mm 2 mps 742 mmHg 72%
    22:00 +28°C° 0.1 mm 2 mps 742 mmHg 74%
    23:00 +28°C° 0.1 mm 1 mps 742 mmHg 77%

    15 December, Sunday

    Time Temperature Precipitation Wind Pressure Humidity
    00:00 +27°C° 0 mm 1 mps 742 mmHg 79%
    01:00 +27°C° 0 mm 1 mps 742 mmHg 81%
    02:00 +27°C° 0 mm 1 mps 742 mmHg 83%
    03:00 +26°C° 0 mm 1 mps 742 mmHg 83%
    04:00 +26°C° 0 mm 1 mps 742 mmHg 83%
    05:00 +26°C° 0 mm 1 mps 742 mmHg 83%
    06:00 +28°C° 0 mm 2 mps 743 mmHg 77%
    07:00 +29°C° 0 mm 2 mps 743 mmHg 70%
    08:00 +31°C° 0 mm 3 mps 743 mmHg 63%
    09:00 +34°C° 0 mm 3 mps 743 mmHg 57%
    10:00 +36°C° 0 mm 3 mps 743 mmHg 51%
    11:00 +38°C° 0 mm 3 mps 743 mmHg 45%
    12:00 +37°C° 0 mm 3 mps 742 mmHg 47%
    13:00 +37°C° 0 mm 2 mps 741 mmHg 48%
    14:00 +37°C° 0 mm 2 mps 740 mmHg 50%
    15:00 +37°C° 0 mm 2 mps 740 mmHg 51%
    16:00 +37°C° 0 mm 2 mps 740 mmHg 53%
    17:00 +36°C° 0 mm 2 mps 739 mmHg 54%
    18:00 +35°C° 0 mm 2 mps 739 mmHg 56%
    19:00 +34°C° 0 mm 2 mps 739 mmHg 58%
    20:00 +31°C° 0 mm 2 mps 740 mmHg 60%
    21:00 +30°C° 0.2 mm 2 mps 740 mmHg 66%
    22:00 +29°C° 0.2 mm 2 mps 741 mmHg 73%
    23:00 +28°C° 0.2 mm 2 mps 741 mmHg 79%

    16 December, Monday

    Time Temperature Precipitation Wind Pressure Humidity
    00:00 +27°C° 0.1 mm 2 mps 741 mmHg 82%
    01:00 +27°C° 0.1 mm 2 mps 741 mmHg 84%
    02:00 +27°C° 0.1 mm 2 mps 741 mmHg 87%
    03:00 +26°C° 1.7 mm 1 mps 741 mmHg 90%
    04:00 +25°C° 1.7 mm 1 mps 741 mmHg 94%
    05:00 +25°C° 1.7 mm 1 mps 741 mmHg 97%
    06:00 +26°C° 0.8 mm 1 mps 742 mmHg 95%
    07:00 +26°C° 0.8 mm 1 mps 742 mmHg 93%
    08:00 +27°C° 0.8 mm 1 mps 743 mmHg 91%
    09:00 +27°C° 0.4 mm 1 mps 743 mmHg 91%
    10:00 +27°C° 0.4 mm 1 mps 742 mmHg 90%
    11:00 +28°C° 0.4 mm 2 mps 742 mmHg 90%
    12:00 +29°C° 0.6 mm 1 mps 741 mmHg 85%
    13:00 +30°C° 0.6 mm 1 mps 741 mmHg 81%
    14:00 +31°C° 0.6 mm 1 mps 740 mmHg 76%
    15:00 +30°C° 1 mm 1 mps 739 mmHg 80%
    16:00 +30°C° 1 mm 1 mps 739 mmHg 83%
    17:00 +30°C° 1 mm 1 mps 739 mmHg 86%
    18:00 +28°C° 3.5 mm 1 mps 739 mmHg 89%
    19:00 +27°C° 3.5 mm 2 mps 740 mmHg 93%
    20:00 +26°C° 3.5 mm 2 mps 740 mmHg 96%
    21:00 +26°C° 2.7 mm 2 mps 740 mmHg 96%
    22:00 +26°C° 2.7 mm 2 mps 740 mmHg 97%
    23:00 +25°C° 2.7 mm 2 mps 741 mmHg 98%

    17 December, Tuesday

    Time Temperature Precipitation Wind Pressure Humidity
    00:00 +25°C° 2.2 mm 1 mps 740 mmHg 98%
    01:00 +25°C° 2.2 mm 1 mps 740 mmHg 98%
    02:00 +25°C° 2.2 mm 1 mps 740 mmHg 98%
    03:00 +25°C° 2.4 mm 1 mps 740 mmHg 98%
    04:00 +25°C° 2.4 mm 1 mps 740 mmHg 98%
    05:00 +25°C° 2.4 mm 1 mps 740 mmHg 98%
    06:00 +25°C° 0.7 mm 2 mps 741 mmHg 97%
    07:00 +26°C° 0.7 mm 2 mps 741 mmHg 95%
    08:00 +26°C° 0.7 mm 2 mps 742 mmHg 93%
    09:00 +28°C° 0.1 mm 2 mps 742 mmHg 88%
    10:00 +29°C° 0.1 mm 2 mps 741 mmHg 82%
    11:00 +30°C° 0.1 mm 2 mps 741 mmHg 77%
    12:00 +30°C° 1.1 mm 2 mps 740 mmHg 78%
    13:00 +30°C° 1.1 mm 2 mps 740 mmHg 79%
    14:00 +31°C° 1.1 mm 2 mps 739 mmHg 80%
    15:00 +31°C° 0.7 mm 2 mps 738 mmHg 80%
    16:00 +31°C° 0.7 mm 1 mps 738 mmHg 80%
    17:00 +29°C° 0.7 mm 0 mps 738 mmHg 79%
    18:00 +30°C° 1.3 mm 1 mps 738 mmHg 83%
    19:00 +28°C° 1.3 mm 1 mps 739 mmHg 87%
    20:00 +27°C° 1.3 mm 1 mps 740 mmHg 90%
    21:00 +26°C° 1.4 mm 1 mps 740 mmHg 92%
    22:00 +26°C° 1.4 mm 1 mps 740 mmHg 94%
    23:00 +25°C° 1.4 mm 1 mps 741 mmHg 96%
    Show more